User: anonymous   Login
Location: Castiglione Fibocchi
(43.5333°N, 11.7667°E)
Time: 11:09:22
(UTC+00:00)
Language:

Cosmos 2151 - Orbit

View from above orbital plane
View from above orbital plane
View from above satellite
View from above satellite

Ground track
Ground track

The orbit data is extracted from the following two-line orbital elements,

1 21422U 91042A   20300.08965709  .00000195  00000-0  16578-4 0  9992
2 21422  82.5000 158.5814 0014767 151.2462 208.9575 14.92165879591447
Epoch (UTC): 26 October 2020 02:09:06
Eccentricity: 0.0014767
inclination: 82.5000°
perigee height: 581 km
apogee height: 601 km
right ascension of ascending node: 158.5814°
argument of perigee: 151.2462°
revolutions per day: 14.92165879
mean anomaly at epoch: 208.9575°
orbit number at epoch: 59144

The dashed part of the orbit path shows where the satellite is in the earth's shadow,  

DLR